Theta_e
317 320 319 319 318 318 319 321 321 319 317 323 323 324 323 322 324 326 328 328 328 328 326 329 328 327 327 326 325 320 317 316 318 319 320 319 318 318 317 317 314 316 317 318
319 320 317 316 317 319 320 321 320 318 320 323 323 325 323 322 322 326 328 328 328 328 329 327 324 322 320 320 319 317 315 316 317 319 320 319 319 318 318 318 316 316 314 317
320 318 316 318 318 320 319 320 320 319 318 321 322 325 325 323 324 324 325 326 327 328 327 323 321 320 319 319 318 317 315 314 315 316 318 320 319 319 318 317 317 317 316 316
319 317 318 319 319 318 320 318 318 319 319 321 317 319 325 324 325 324 324 324 322 321 320 319 317 317 317 317 317 318 316 315 316 314 317 320 320 320 318 318 317 316 316 316
322 319 319 320 318 317 320 317 318 318 319 319 318 319 323 323 325 324 322 321 319 319 319 317 316 315 315 315 315 316 316 315 314 313 313 316 316 315 315 314 314 314 313 315
321 319 318 319 317 317 316 318 317 317 319 321 319 320 321 324 325 324 322 320 319 318 317 315 315 315 315 314 315 315 316 315 314 312 313 313 312 312 311 311 311 310 310 311
322 321 320 319 321 318 319 324 326 324 321 320 318 319 320 321 320 323 323 321 319 317 316 316 315 315 315 316 315 314 314 313 313 313 312 311 310 311 310 310 309 309 309 310
325 324 321 320 319 321 318 321 322 323 320 319 316 320 320 317 318 319 320 320 318 316 315 315 315 315 315 314 314 312 311 311 311 311 311 310 309 309 309 309 308 308 309 310
325 323 319 319 318 318 320 321 316 321 317 320 319 318 317 320 320 320 320 319 318 317 316 316 315 315 313 312 311 311 310 309 308 309 310 309 308 309 308 308 308 309 310 310
322 324 319 320 318 316 319 316 321 320 321 320 319 319 319 318 320 321 321 321 319 317 316 316 315 313 312 311 310 309 308 307 307 308 307 307 307 308 306 307 308 310 310 311
320 324 322 317 318 318 317 317 316 318 319 320 318 318 316 320 319 318 318 319 319 317 316 315 313 312 312 310 309 308 307 307 306 306 306 306 307 307 307 308 308 309 309 309
319 323 323 317 314 314 317 318 319 323 321 318 319 321 318 319 319 319 319 318 316 316 315 314 313 312 311 310 309 307 306 306 306 305 306 306 307 307 307 308 308 307 306 307
318 322 325 318 317 317 319 318 317 317 317 318 318 316 318 317 317 316 316 316 316 315 314 314 313 312 311 309 308 306 306 305 305 305 307 307 308 307 306 305 305 305 305 305
317 318 323 325 320 316 318 319 318 318 323 316 315 315 317 317 318 317 317 316 316 315 314 314 313 313 311 309 307 306 305 305 305 306 306 307 307 306 304 303 303 303 303 302
320 323 317 316 314 315 317 319 319 318 316 316 315 318 318 318 318 318 317 316 315 314 314 314 314 312 310 307 306 305 304 305 305 305 307 308 305 304 303 302 302 302 302 302
317 325 321 320 318 319 320 318 317 316 316 316 317 320 318 318 317 317 315 315 314 314 313 313 313 311 307 306 305 304 304 305 305 306 307 304 303 302 301 301 301 301 301 302
322 323 321 316 316 315 319 316 316 317 319 319 320 318 318 316 315 315 315 315 314 313 314 313 312 309 307 305 304 304 303 305 305 305 304 302 302 302 302 302 302 302 302 302
320 320 317 320 318 325 314 315 316 318 318 319 319 318 316 315 315 315 314 313 313 313 312 311 309 307 304 303 303 302 303 304 304 303 302 302 302 302 303 304 304 304 304 304
315 319 321 326 324 319 318 319 318 318 319 316 318 317 315 315 315 314 312 312 311 309 307 306 305 304 303 302 302 302 303 303 302 302 302 301 301 304 305 305 305 304 304 304
314 315 324 319 325 322 318 317 315 316 319 316 316 315 315 315 318 314 312 309 306 304 303 302 302 302 302 301 301 303 303 302 302 302 302 303 304 304 304 304 304 303 305 305
318 318 319 319 322 320 318 317 315 321 319 315 314 315 315 316 315 312 308 305 303 301 300 300 300 301 300 301 302 303 302 302 302 302 303 303 303 304 304 303 303 303 304 303
321 322 321 320 321 322 316 316 318 317 315 315 315 314 314 313 310 308 305 304 301 300 301 300 299 299 300 302 302 302 303 302 302 302 303 302 302 302 303 303 304 304 303 305
322 320 324 322 321 317 315 314 314 314 315 314 314 312 310 309 307 304 304 302 301 301 301 300 299 300 302 302 302 302 302 303 301 302 303 303 303 301 300 302 304 304 304 304
313 312 316 315 313 314 314 314 312 312 313 311 309 308 306 306 304 303 302 301 302 301 301 300 301 302 302 302 303 303 302 299 301 301 301 302 301 301 302 302 302 302 303 304
311 311 311 312 311 312 312 311 311 311 309 308 306 305 304 303 303 303 302 302 302 301 301 301 302 302 302 303 302 300 299 299 300 302 302 301 301 301 302 301 300 302 299 301
309 312 314 313 312 312 312 311 310 310 308 306 305 304 302 302 302 301 302 301 301 301 301 302 302 302 302 302 302 303 302 302 302 302 302 301 301 301 301 303 303 301 301 301
Wind_Speed
3 2 4 4 3 5 7 6 5 3 3 4 7 8 12 10 8 11 13 13 12 10 7 9 7 6 6 8 8 11 13 15 16 16 15 16 18 18 18 19 22 21 21 21
2 4 0 6 8 9 6 6 3 5 5 3 3 8 8 9 5 8 13 13 11 10 10 8 6 6 7 7 8 10 12 13 14 13 13 11 14 14 17 16 21 22 25 24
4 3 5 7 8 7 3 3 2 2 4 5 5 3 4 6 7 8 8 9 10 11 10 6 5 6 6 7 8 9 10 12 13 15 14 14 14 15 17 20 22 23 26 26
5 2 7 4 3 1 2 3 3 3 3 4 2 2 2 5 6 8 9 10 9 7 6 5 4 5 5 6 8 8 10 13 13 14 13 13 16 19 20 21 22 25 25 26
2 2 2 2 1 2 3 2 2 1 3 2 4 4 5 8 9 12 11 9 6 4 3 3 3 3 4 5 7 8 10 12 11 12 13 13 17 21 23 24 26 27 29 27
2 1 2 2 3 3 8 2 3 2 1 4 3 2 7 10 16 14 12 9 6 4 3 1 1 2 3 6 8 10 9 10 12 15 15 16 20 23 24 25 27 29 31 31
3 3 3 2 3 3 2 2 4 3 2 3 3 4 4 14 7 15 15 11 7 5 4 2 2 3 6 8 9 9 11 16 18 19 19 19 22 23 23 25 29 31 32 31
3 3 5 6 3 2 3 1 3 5 5 5 3 5 1 1 1 3 5 9 8 6 4 2 3 6 7 8 11 16 21 24 24 25 24 23 25 25 25 27 32 31 28 28
4 3 1 6 2 3 4 2 2 1 1 3 2 1 4 1 4 4 6 7 7 5 3 3 4 4 7 11 17 22 25 27 28 28 25 27 26 23 25 28 26 24 24 24
3 2 1 2 0 10 1 5 2 1 3 4 3 3 4 0 3 3 5 8 5 2 3 4 4 7 11 16 19 22 25 28 28 27 27 29 27 22 28 26 25 24 26 23
2 1 2 1 5 3 1 2 4 1 2 3 4 1 2 4 6 8 10 5 3 4 6 6 7 9 12 16 20 25 27 28 28 27 27 27 24 23 24 26 26 27 19 20
2 2 2 3 4 2 2 3 2 2 2 1 2 5 2 2 4 4 3 2 4 6 8 9 10 11 14 18 23 26 27 27 27 26 26 24 21 20 21 22 17 17 15 13
3 1 2 2 2 2 1 3 3 3 1 6 5 2 2 1 2 1 3 5 7 9 11 11 12 13 15 19 24 26 26 26 28 24 23 21 20 19 17 16 15 14 12 11
2 2 3 6 2 1 3 6 3 3 3 3 8 14 10 6 4 4 7 9 10 11 13 14 13 14 15 19 22 25 25 26 25 22 21 20 20 11 14 15 14 12 10 10
1 3 2 1 2 3 5 5 5 8 7 6 4 10 13 4 5 7 11 12 12 15 16 16 13 14 16 18 22 24 24 22 21 21 19 16 17 10 12 12 11 10 11 12
2 2 1 2 1 4 8 6 7 11 8 12 10 9 2 4 7 10 15 15 15 16 17 17 15 15 14 19 23 24 22 20 20 19 11 13 9 10 11 11 11 10 11 11
1 4 2 2 1 5 8 1 3 2 3 3 5 7 3 8 12 14 16 16 16 17 17 17 14 15 16 21 21 21 19 20 20 11 10 9 9 9 10 11 10 10 10 10
5 4 0 1 3 3 3 3 4 4 5 5 7 7 6 12 11 14 13 13 13 16 17 16 18 17 17 20 19 16 16 14 11 9 9 8 9 10 10 8 10 9 9 9
1 4 2 1 2 4 2 3 2 2 4 5 6 6 13 14 13 15 7 12 15 16 21 21 21 16 18 19 14 11 15 9 8 9 10 10 9 11 12 11 10 10 9 10
5 3 2 3 2 3 3 4 1 3 6 5 3 11 15 14 13 13 15 16 20 24 25 25 22 16 16 15 12 9 7 7 9 8 9 10 12 10 10 11 8 10 11 12
3 2 5 3 2 4 2 1 2 3 4 6 6 10 10 9 9 15 16 20 23 23 22 21 18 13 15 14 7 5 6 8 6 8 10 9 11 10 10 10 9 13 11 13
3 4 2 2 2 4 2 2 3 4 5 5 8 6 8 10 13 16 17 17 19 19 22 17 15 15 18 8 5 9 9 6 9 8 9 9 10 9 9 8 9 10 11 10
2 1 1 5 1 1 2 2 6 4 7 6 6 5 7 12 14 15 14 13 16 17 17 15 14 16 16 14 14 9 7 8 9 10 12 10 8 9 10 8 8 14 11 11
2 1 1 2 2 4 4 6 5 3 2 1 3 6 9 12 13 14 11 13 14 15 14 13 12 12 15 14 12 9 8 10 10 11 10 9 9 10 12 11 9 9 10 11
1 2 1 4 7 6 3 3 4 1 1 2 5 7 9 11 12 12 11 13 13 12 13 9 12 13 14 11 11 12 12 12 12 11 11 10 10 12 12 17 15 10 14 12
3 2 2 2 3 3 5 6 3 2 3 6 8 11 12 10 11 14 13 14 11 9 7 12 15 14 12 11 11 12 13 12 11 13 13 11 9 11 9 10 17 23 21 20
Wind_Direction
31 171 172 167 146 131 131 137 120 96 23 79 55 35 14 22 78 134 142 142 133 123 126 127 109 70 55 39 24 10 353 350 350 351 345 340 340 338 340 341 346 347 348 348
124 92 129 110 122 123 117 123 96 113 100 93 113 58 35 37 70 140 144 141 135 132 137 127 95 71 51 35 18 358 350 342 338 336 324 318 319 318 317 322 329 334 338 338
94 65 147 131 123 119 84 122 157 92 126 88 152 101 43 52 94 121 127 130 133 140 134 113 85 44 21 2 345 339 336 330 325 322 317 309 310 308 312 319 323 322 325 327
62 55 139 122 107 209 159 179 162 161 214 294 221 289 162 150 146 160 155 156 143 127 109 84 42 14 0 346 341 330 323 325 320 321 318 308 306 305 307 309 308 310 312 313
75 130 137 124 107 205 98 104 46 52 184 234 181 252 128 172 195 190 187 178 159 135 113 82 32 348 329 335 325 327 322 327 324 329 331 321 312 309 307 305 305 306 306 306
37 346 10 82 74 70 141 114 74 93 155 239 126 299 186 191 211 196 194 194 180 165 143 141 267 319 324 318 329 330 320 317 315 316 311 310 310 308 304 306 307 306 304 301
11 21 11 24 135 89 98 345 302 248 233 327 122 270 313 209 209 207 197 189 173 170 192 224 262 311 321 323 334 335 324 318 312 306 301 308 310 305 303 307 309 308 304 300
196 189 5 356 34 60 56 305 288 292 284 309 146 246 88 13 354 135 161 164 170 187 199 250 304 305 312 336 338 336 332 323 315 308 300 304 308 305 302 307 309 303 300 298
172 195 309 34 43 328 137 196 50 133 93 259 280 226 223 94 136 138 147 178 193 197 212 268 307 310 342 342 341 337 331 325 318 312 306 308 312 302 309 311 310 306 303 301
153 170 24 82 184 55 356 118 219 182 270 267 208 257 261 21 246 213 239 230 218 223 288 300 324 346 342 339 335 331 329 323 319 316 314 313 313 305 314 310 311 310 309 307
125 266 138 236 23 329 219 160 63 48 295 284 300 245 62 323 325 300 309 267 280 308 313 318 313 317 328 329 330 332 328 325 322 321 320 318 316 317 318 312 309 313 311 322
42 87 84 38 9 237 91 104 109 207 191 233 300 275 23 312 321 334 20 353 319 300 295 290 286 303 317 328 333 331 327 325 325 322 321 319 318 324 327 344 339 335 338 345
165 40 140 157 181 164 132 117 95 87 46 242 274 303 116 236 260 357 324 312 300 298 288 286 284 302 316 327 329 328 326 324 322 321 323 321 320 320 332 338 344 347 353 357
84 127 234 265 3 80 209 180 180 210 202 279 260 298 311 306 258 284 289 290 291 297 302 299 289 299 311 323 325 326 325 323 322 322 319 320 318 337 343 353 358 5 16 27
28 221 216 276 257 244 264 241 224 221 239 239 296 302 322 318 282 291 293 298 300 306 315 311 294 300 310 324 325 327 324 324 325 324 321 338 354 4 8 10 14 32 43 38
15 146 184 268 309 262 267 257 236 248 252 245 274 293 264 279 281 291 302 315 310 317 315 316 298 305 323 327 328 326 326 325 325 321 356 1 16 25 29 24 24 35 30 32
91 141 161 259 335 297 263 138 219 245 206 254 287 335 299 308 320 317 320 315 313 317 320 319 320 318 325 328 328 325 324 329 331 12 13 25 46 44 27 28 20 21 10 2
139 124 178 271 278 242 82 337 264 279 274 248 277 280 296 318 320 307 315 323 328 325 325 324 322 318 324 328 328 324 330 341 360 24 34 49 35 16 11 9 6 7 4 5
263 139 116 242 234 317 143 183 187 320 307 323 283 293 323 327 318 311 27 343 328 329 325 320 315 312 325 329 329 328 341 356 26 44 51 36 9 358 6 13 15 11 18 35
97 91 158 175 237 280 63 150 87 181 300 37 325 315 318 326 319 326 348 336 333 330 324 319 312 315 324 331 332 332 6 33 55 53 15 353 354 0 15 19 22 44 34 31
160 158 222 177 241 287 36 171 182 289 358 330 315 318 316 311 314 320 333 335 336 336 331 331 331 324 329 326 332 16 58 63 49 4 358 17 29 33 45 50 43 17 49 50
203 177 165 149 204 274 59 145 255 353 312 303 324 326 313 317 322 333 334 336 335 332 342 340 331 322 328 332 57 81 77 52 0 10 34 43 69 50 30 46 55 52 68 44
232 270 186 210 242 142 246 298 297 287 285 319 314 328 327 323 330 332 331 333 327 326 330 337 336 336 36 86 101 81 50 19 27 48 56 57 50 27 37 56 50 55 74 39
162 142 247 249 175 239 263 273 311 309 308 319 349 332 326 327 330 331 332 323 322 327 333 338 353 52 63 82 72 55 41 58 58 60 52 27 30 29 34 42 41 44 41 35
24 182 260 279 287 278 268 18 340 112 81 355 339 335 335 329 327 329 316 317 318 323 337 7 68 78 76 70 60 56 56 61 62 51 37 34 31 29 42 42 41 46 52 53
183 171 200 276 1 294 337 352 22 37 7 351 338 340 341 325 321 320 309 304 310 324 0 83 91 88 81 71 52 39 32 39 46 37 24 22 21 13 32 59 64 68 74 63